Bellingham, WA
on Friday, February 15, 2013

Friday
Previous Day Next Day
Daily Summary
 ActualAverageRecord
Temperature
Mean Temperature °F 41°F  
Max Temperature 57°F 48°F 62°F (1996)
Min Temperature 39°F 33°F 6°F (1956)
Degree Days
Heating Degree Days 17 24  
Month to date heating degree days 371  
Cooling Degree Days 0 0  
Month to date cooling degree days 0  
Year to date cooling degree days 0  
Moisture
Dew Point 41°F   
Average Humidity 87    
Maximum Humidity 100    
Minimum Humidity 51    
Precipitation
Precipitation 0.00 in 0.10 in 1.02 in (1986)
Month to date precipitation 1.68  
Year to date precipitation 6.35  
Wind
Wind Speed 5 mph   
Max Wind Speed 9 mph   
Max Gust Speed mph   
Visibility 6 miles   
Events Fog   

Key: T is trace of precipitation, MM is missing value
Source: NWS Daily Summary
Time(PST)TemperatureDew PointHumidity Pressure Visibility Wind DirectionWind SpeedGust SpeedPrecipitationEvents Conditions
12:24 AM 42.8°F 42.8°F 100% 30.57 in 3.0 miles North 4.6 mph - N/A   Overcast
12:53 AM 43.0°F 42.1°F 97% 30.60 in 3.0 miles North 4.6 mph - N/A   Overcast
1:03 AM 42.8°F 42.8°F 100% 30.57 in 2.5 miles North 5.8 mph - N/A   Overcast
1:17 AM 42.8°F 42.8°F 100% 30.56 in 2.5 miles NNE 5.8 mph - N/A   Overcast
1:34 AM 42.8°F 42.8°F 100% 30.56 in 3.0 miles North 5.8 mph - N/A   Overcast
1:53 AM 43.0°F 42.1°F 97% 30.58 in 4.0 miles North 5.8 mph - N/A   Overcast
2:53 AM 43.0°F 41.0°F 93% 30.56 in 6.0 miles North 4.6 mph - N/A   Overcast
3:06 AM 42.8°F 41.0°F 93% 30.53 in 7.0 miles North 6.9 mph - N/A   Overcast
3:53 AM 42.1°F 39.9°F 92% 30.55 in 7.0 miles North 5.8 mph - N/A   Overcast
4:40 AM 42.8°F 39.2°F 87% 30.51 in 7.0 miles North 5.8 mph - N/A   Overcast
4:53 AM 42.1°F 39.9°F 92% 30.53 in 7.0 miles North 5.8 mph - N/A   Overcast
5:53 AM 41.0°F 39.9°F 96% 30.53 in 8.0 miles North 3.5 mph - N/A   Overcast
6:21 AM 41.0°F 39.2°F 93% 30.50 in 7.0 miles North 3.5 mph - N/A   Overcast
6:44 AM 41.0°F 39.2°F 93% 30.49 in 6.0 miles North 6.9 mph - N/A   Overcast
6:53 AM 41.0°F 39.9°F 96% 30.52 in 6.0 miles North 6.9 mph - N/A   Overcast
7:24 AM 39.2°F 39.2°F 100% 30.49 in 1.8 miles North 5.8 mph - N/A   Overcast
7:29 AM 39.2°F 39.2°F 100% 30.49 in 0.5 miles North 8.1 mph - N/A Fog Fog
7:53 AM 39.0°F 39.0°F 100% 30.52 in 0.5 miles North 6.9 mph - N/A Fog Fog
8:17 AM 39.2°F 39.2°F 100% 30.48 in 0.2 miles NNE 4.6 mph - N/A Fog Fog
8:53 AM 39.9°F 39.0°F 97% 30.51 in 0.2 miles NNE 4.6 mph - N/A Fog Fog
9:07 AM 39.2°F 39.2°F 100% 30.48 in 0.2 miles NNE 6.9 mph - N/A Fog Fog
9:19 AM 39.2°F 39.2°F 100% 30.48 in 1.0 miles North 6.9 mph - N/A   Overcast
9:38 AM 41.0°F 39.2°F 93% 30.47 in 2.5 miles NNE 5.8 mph - N/A   Overcast
9:46 AM 39.2°F 39.2°F 100% 30.47 in 5.0 miles NNE 9.2 mph - N/A   Overcast
9:53 AM 39.9°F 39.9°F 100% 30.49 in 2.5 miles NNE 8.1 mph - N/A   Overcast
10:48 AM 48.2°F 42.8°F 82% 30.45 in 6.0 miles NNE 6.9 mph - N/A   Haze
10:53 AM 48.0°F 42.1°F 80% 30.47 in 6.0 miles North 5.8 mph - N/A   Haze
11:15 AM 51.8°F 42.8°F 71% 30.43 in 10.0 miles North 5.8 mph - N/A   Scattered Clouds
11:53 AM 55.0°F 42.1°F 62% 30.45 in 4.0 miles Variable 6.9 mph - N/A   Haze
12:53 PM 57.0°F 42.1°F 57% 30.41 in 10.0 miles NNW 8.1 mph - N/A   Clear
1:53 PM 57.9°F 42.1°F 56% 30.37 in 10.0 miles Variable 6.9 mph - N/A   Clear
2:53 PM 57.9°F 41.0°F 53% 30.35 in 10.0 miles NNE 4.6 mph - N/A   Clear
3:53 PM 57.9°F 39.9°F 51% 30.33 in 10.0 miles NNW 4.6 mph - N/A   Clear
4:53 PM 54.0°F 43.0°F 66% 30.31 in 10.0 miles WNW 5.8 mph - N/A   Clear
5:53 PM 50.0°F 41.0°F 71% 30.28 in 10.0 miles Calm Calm - N/A   Clear
6:53 PM 46.9°F 39.9°F 77% 30.28 in 10.0 miles West 3.5 mph - N/A   Clear
7:53 PM 46.0°F 39.9°F 79% 30.25 in 10.0 miles Calm Calm - N/A   Clear
8:53 PM 45.0°F 39.0°F 80% 30.24 in 10.0 miles Calm Calm - N/A   Clear
9:53 PM 44.1°F 39.0°F 82% 30.23 in 10.0 miles Calm Calm - N/A   Clear
10:53 PM 45.0°F 39.9°F 82% 30.20 in 9.0 miles Calm Calm - N/A   Mostly Cloudy
11:53 PM 45.0°F 39.0°F 80% 30.19 in 8.0 miles Calm Calm - N/A   Overcast
Moon Phase
Feb. 15 Feb. 17 Feb. 25 Mar. 04 Mar. 11
Sunrise:07:17 AM (PST) Moon Rise:09:23 AM (PST)2/15
Sunset:05:31 PM (PST) Moon Set:No Moon Set/

Copyright © 2014 The Weather Underground, Inc.